When you browse on this site, cookies collect data to enhance your experience and personalize the content and advertising you see.
Visit our Privacy Policy to learn more. By continuing to use the site, you agree to this use of cookies and data.
  • In Spain
  • List of Countries
  • For 7 days
  • Water Temperature
  • Weather Map
  • Weather Widgets
  • user-avatar
    Login

    Hourly Weather Puerto Varas

    Today, 23 January, Thursday

    Time Temperature Precipitation Wind Pressure Humidity
    00:00 +13°C° 0 mm 3 mps 753 mmHg 88%
    01:00 +14°C° 0 mm 2 mps 753 mmHg 92%
    02:00 +13°C° 0 mm 2 mps 753 mmHg 93%
    03:00 +13°C° 0 mm 2 mps 753 mmHg 94%
    04:00 +13°C° 0 mm 1 mps 754 mmHg 95%
    05:00 +14°C° 0 mm 1 mps 754 mmHg 93%
    06:00 +15°C° 0 mm 1 mps 754 mmHg 90%
    07:00 +15°C° 0 mm 2 mps 754 mmHg 87%
    08:00 +18°C° 0 mm 2 mps 755 mmHg 77%
    09:00 +20°C° 0 mm 2 mps 755 mmHg 68%
    10:00 +23°C° 0 mm 2 mps 755 mmHg 58%
    11:00 +23°C° 0 mm 2 mps 755 mmHg 55%
    12:00 +24°C° 0 mm 2 mps 755 mmHg 52%
    13:00 +25°C° 0 mm 3 mps 755 mmHg 49%
    14:00 +25°C° 0 mm 3 mps 755 mmHg 49%
    15:00 +24°C° 0 mm 3 mps 755 mmHg 49%
    16:00 +24°C° 0 mm 3 mps 755 mmHg 48%
    17:00 +21°C° 0 mm 3 mps 755 mmHg 56%
    18:00 +19°C° 0 mm 2 mps 756 mmHg 63%
    19:00 +17°C° 0 mm 2 mps 756 mmHg 71%
    20:00 +15°C° 0 mm 2 mps 756 mmHg 79%
    21:00 +14°C° 0 mm 1 mps 756 mmHg 87%
    22:00 +12°C° 0 mm 1 mps 756 mmHg 95%
    23:00 +11°C° 0 mm 1 mps 756 mmHg 95%

    Tomorrow, 24 January, Friday

    Time Temperature Precipitation Wind Pressure Humidity
    00:00 +11°C° 0 mm 1 mps 756 mmHg 96%
    01:00 +11°C° 0 mm 1 mps 756 mmHg 96%
    02:00 +10°C° 0 mm 1 mps 756 mmHg 96%
    03:00 +9°C° 0 mm 0 mps 756 mmHg 96%
    04:00 +9°C° 0 mm 0 mps 756 mmHg 96%
    05:00 +10°C° 0 mm 0 mps 756 mmHg 90%
    06:00 +12°C° 0 mm 0 mps 756 mmHg 84%
    07:00 +13°C° 0 mm 0 mps 756 mmHg 78%
    08:00 +16°C° 0 mm 1 mps 756 mmHg 68%
    09:00 +19°C° 0 mm 1 mps 756 mmHg 58%
    10:00 +21°C° 0 mm 1 mps 756 mmHg 47%
    11:00 +22°C° 0 mm 1 mps 756 mmHg 43%
    12:00 +23°C° 0 mm 1 mps 755 mmHg 40%
    13:00 +24°C° 0 mm 2 mps 755 mmHg 36%
    14:00 +23°C° 0 mm 2 mps 755 mmHg 39%
    15:00 +23°C° 0 mm 2 mps 755 mmHg 41%
    16:00 +21°C° 0 mm 2 mps 755 mmHg 44%
    17:00 +20°C° 0 mm 2 mps 756 mmHg 51%
    18:00 +18°C° 0 mm 2 mps 756 mmHg 59%
    19:00 +17°C° 0 mm 2 mps 756 mmHg 66%
    20:00 +16°C° 0 mm 1 mps 756 mmHg 70%
    21:00 +16°C° 0 mm 1 mps 756 mmHg 73%
    22:00 +15°C° 0 mm 0 mps 756 mmHg 77%
    23:00 +14°C° 0 mm 0 mps 756 mmHg 78%

    Day after tomorrow, 25 January, Saturday

    Time Temperature Precipitation Wind Pressure Humidity
    00:00 +14°C° 0 mm 0 mps 756 mmHg 80%
    01:00 +14°C° 0 mm 0 mps 756 mmHg 81%
    02:00 +14°C° 0 mm 0 mps 756 mmHg 83%
    03:00 +14°C° 0 mm 0 mps 756 mmHg 85%
    04:00 +13°C° 0 mm 0 mps 756 mmHg 87%
    05:00 +14°C° 0 mm 0 mps 756 mmHg 86%
    06:00 +15°C° 0 mm 0 mps 756 mmHg 85%
    07:00 +15°C° 0 mm 0 mps 756 mmHg 84%
    08:00 +19°C° 0 mm 1 mps 756 mmHg 77%
    09:00 +21°C° 0 mm 1 mps 756 mmHg 70%
    10:00 +22°C° 0 mm 1 mps 755 mmHg 63%
    11:00 +23°C° 0 mm 1 mps 755 mmHg 59%
    12:00 +24°C° 0 mm 2 mps 755 mmHg 55%
    13:00 +25°C° 0 mm 2 mps 755 mmHg 52%
    14:00 +24°C° 0 mm 2 mps 755 mmHg 54%
    15:00 +24°C° 0 mm 3 mps 754 mmHg 57%
    16:00 +22°C° 0 mm 3 mps 754 mmHg 60%
    17:00 +21°C° 0 mm 2 mps 755 mmHg 67%
    18:00 +20°C° 0 mm 2 mps 755 mmHg 74%
    19:00 +19°C° 0 mm 1 mps 755 mmHg 81%
    20:00 +18°C° 0 mm 1 mps 755 mmHg 86%
    21:00 +16°C° 0 mm 1 mps 755 mmHg 92%
    22:00 +15°C° 0 mm 1 mps 756 mmHg 97%
    23:00 +15°C° 0 mm 1 mps 756 mmHg 97%

    26 January, Sunday

    Time Temperature Precipitation Wind Pressure Humidity
    00:00 +15°C° 0 mm 1 mps 755 mmHg 97%
    01:00 +15°C° 0 mm 1 mps 755 mmHg 97%
    02:00 +15°C° 0 mm 1 mps 755 mmHg 96%
    03:00 +15°C° 0 mm 1 mps 755 mmHg 96%
    04:00 +15°C° 0 mm 1 mps 755 mmHg 96%
    05:00 +16°C° 0 mm 1 mps 756 mmHg 94%
    06:00 +16°C° 0 mm 1 mps 756 mmHg 93%
    07:00 +16°C° 0 mm 1 mps 756 mmHg 91%
    08:00 +18°C° 0 mm 1 mps 756 mmHg 86%
    09:00 +19°C° 0 mm 1 mps 756 mmHg 81%
    10:00 +20°C° 0 mm 1 mps 756 mmHg 76%
    11:00 +21°C° 0 mm 1 mps 756 mmHg 71%
    12:00 +21°C° 0 mm 2 mps 756 mmHg 65%
    13:00 +23°C° 0 mm 2 mps 756 mmHg 59%
    14:00 +23°C° 0 mm 2 mps 756 mmHg 57%
    15:00 +23°C° 0 mm 2 mps 756 mmHg 56%
    16:00 +22°C° 0 mm 3 mps 756 mmHg 54%
    17:00 +20°C° 0 mm 3 mps 756 mmHg 61%
    18:00 +19°C° 0 mm 2 mps 756 mmHg 68%
    19:00 +17°C° 0 mm 2 mps 756 mmHg 74%
    20:00 +15°C° 0 mm 2 mps 757 mmHg 81%
    21:00 +14°C° 0 mm 2 mps 757 mmHg 87%
    22:00 +12°C° 0 mm 1 mps 757 mmHg 93%
    23:00 +12°C° 0 mm 1 mps 757 mmHg 93%

    27 January, Monday

    Time Temperature Precipitation Wind Pressure Humidity
    00:00 +12°C° 0 mm 1 mps 757 mmHg 92%
    01:00 +11°C° 0 mm 1 mps 756 mmHg 92%
    02:00 +11°C° 0 mm 1 mps 756 mmHg 92%
    03:00 +10°C° 0 mm 1 mps 756 mmHg 93%
    04:00 +10°C° 0 mm 1 mps 756 mmHg 93%
    05:00 +11°C° 0 mm 1 mps 756 mmHg 86%
    06:00 +13°C° 0 mm 1 mps 756 mmHg 78%
    07:00 +13°C° 0 mm 0 mps 755 mmHg 71%
    08:00 +18°C° 0 mm 1 mps 755 mmHg 63%
    09:00 +20°C° 0 mm 1 mps 755 mmHg 55%
    10:00 +22°C° 0 mm 1 mps 755 mmHg 47%
    11:00 +23°C° 0 mm 1 mps 755 mmHg 43%
    12:00 +24°C° 0 mm 1 mps 754 mmHg 38%
    13:00 +25°C° 0 mm 2 mps 754 mmHg 34%
    14:00 +25°C° 0 mm 2 mps 754 mmHg 35%
    15:00 +24°C° 0 mm 2 mps 754 mmHg 35%
    16:00 +24°C° 0 mm 2 mps 754 mmHg 36%
    17:00 +23°C° 0 mm 2 mps 754 mmHg 44%
    18:00 +20°C° 0 mm 2 mps 754 mmHg 51%
    19:00 +18°C° 0 mm 2 mps 754 mmHg 58%
    20:00 +18°C° 0 mm 1 mps 754 mmHg 63%
    21:00 +16°C° 0 mm 1 mps 754 mmHg 68%
    22:00 +15°C° 0 mm 0 mps 754 mmHg 73%
    23:00 +15°C° 0 mm 0 mps 754 mmHg 77%

    28 January, Tuesday

    Time Temperature Precipitation Wind Pressure Humidity
    00:00 +14°C° 0 mm 0 mps 754 mmHg 81%
    01:00 +14°C° 0 mm 0 mps 753 mmHg 85%
    02:00 +14°C° 0.1 mm 0 mps 753 mmHg 87%
    03:00 +14°C° 0.1 mm 0 mps 753 mmHg 90%
    04:00 +14°C° 0.1 mm 0 mps 753 mmHg 93%
    05:00 +15°C° 0 mm 1 mps 753 mmHg 91%
    06:00 +16°C° 0 mm 1 mps 753 mmHg 89%
    07:00 +16°C° 0 mm 1 mps 753 mmHg 87%
    08:00 +18°C° 0 mm 1 mps 753 mmHg 78%
    09:00 +20°C° 0 mm 1 mps 753 mmHg 69%
    10:00 +21°C° 0 mm 1 mps 753 mmHg 60%
    11:00 +20°C° 0 mm 2 mps 753 mmHg 61%
    12:00 +20°C° 0 mm 2 mps 753 mmHg 61%
    13:00 +19°C° 0 mm 3 mps 753 mmHg 61%
    14:00 +17°C° 1.2 mm 2 mps 753 mmHg 73%
    15:00 +15°C° 1.2 mm 2 mps 753 mmHg 85%
    16:00 +13°C° 1.2 mm 1 mps 753 mmHg 97%
    17:00 +13°C° 0.2 mm 1 mps 753 mmHg 97%
    18:00 +13°C° 0.2 mm 1 mps 753 mmHg 96%
    19:00 +13°C° 0.2 mm 1 mps 753 mmHg 95%
    20:00 +13°C° 0 mm 1 mps 754 mmHg 95%
    21:00 +12°C° 0 mm 1 mps 754 mmHg 96%
    22:00 +11°C° 0 mm 1 mps 754 mmHg 96%
    23:00 +10°C° 0.1 mm 2 mps 754 mmHg 96%
    Show more